[[{"header":{"parameterUnit":"m.s-1","parameterCategory":1,"la1":30.2991,"la2":30.254,"lo1":-89.0895,"lo2":-89.0444,"dy":0.0017,"dx":0.0017,"nx":28,"ny":28,"refTime":"2024-06-25T03:00:00:Z","depth":0,"parameterNumber":2,"parameterNumberName":"U-component_of_WINDS"},"data":[0,0,0,0,0,0,0,0,0,0,0,0,0,0,0,0,0,0,0,0,0,0,0,0,0,0,0,0,0,0,0,0,0,0,0,0,0,0,0,0,0,0,0,0,0,0,0,0,0,0,0,0,0,0,0,0,0,0,2.5429,2.5429,0,2.5497,2.5498,2.5499,2.5482,2.5481,2.5479,2.5478,2.5549,2.5552,2.5555,0,0,0,0,0,0,0,0,0,0,0,0,0,2.5285,2.5288,2.5429,2.5429,2.543,2.5497,2.5498,2.5499,2.5482,2.5481,2.5479,2.5478,2.5548,2.5551,2.5555,0,0,0,0,0,0,0,0,0,0,0,0,0,2.535,2.5289,2.5428,2.543,2.5431,2.5497,2.5498,2.5499,2.5483,2.5481,2.5479,2.5477,2.5546,2.5551,2.5556,2.5624,0,0,2.557,2.5572,0,0,0,0,0,0,0,0,2.5346,2.5355,2.5429,2.543,2.5431,2.5479,2.5473,2.5541,2.5483,2.5463,2.5478,2.5476,2.5527,2.5533,2.5551,2.5628,2.5631,2.557,2.5573,2.5575,2.5576,0,0,0,0,0,0,0,2.5342,2.5352,2.5456,2.543,2.5431,2.5428,2.5435,2.5486,2.5505,2.5465,2.5464,2.5472,2.5527,2.5546,2.5552,2.5632,2.557,2.5574,2.5577,2.5579,2.5772,2.5774,0,0,0,0,0,0,2.5336,2.5349,2.5454,2.5458,2.5383,2.5432,2.544,2.5466,2.5505,2.5509,2.5474,2.5471,2.5539,2.5547,2.5554,2.564,2.5575,2.5579,2.5582,2.577,2.5773,2.5775,0,0,0,0,0,0,2.5333,2.5346,2.5451,2.5403,2.5416,2.5437,2.5466,2.5468,2.5487,2.5512,2.5515,2.5489,2.5538,2.5548,2.5608,2.5642,2.5582,2.5586,2.5767,2.5771,2.5774,2.5809,0,0,0,0,0,0,2.5329,2.5345,2.537,2.5404,2.5419,2.5502,2.5468,2.5471,2.5495,2.5492,2.5527,2.5531,2.5537,2.5601,2.5613,2.5647,2.5589,2.5764,2.5769,2.5773,2.5805,2.5814,2.5821,0,0,0,0,0,2.5324,2.5377,2.5372,2.5385,2.5451,2.5504,2.5513,2.5519,2.5498,2.5524,2.5541,2.553,2.5636,2.5607,2.562,2.5657,2.5762,2.5767,2.5773,2.5802,2.5812,2.5821,0,0,0,0,0,0,2.5346,2.5381,2.5376,2.5441,2.547,2.5501,2.5535,2.5529,2.5564,2.556,2.5566,2.5574,2.5636,2.5652,2.5619,2.5727,2.5696,2.5704,2.5714,2.5724,2.5732,2.5727,2.5593,0,0,0,0,0,2.5359,2.5399,2.5427,2.5482,2.5497,2.5514,2.5537,2.5539,2.5569,2.5582,2.5602,2.5632,2.5673,2.5699,2.5738,2.5808,2.5816,2.5839,2.5847,2.5853,2.5861,2.5902,2.5913,2.5792,2.5792,2.5792,0,0,2.5385,2.5409,2.5434,2.5487,2.551,2.5552,2.5524,2.5569,2.5601,2.5588,2.5647,2.5663,2.5697,2.5764,2.5794,2.5779,2.5896,2.586,2.5865,2.5869,2.5908,2.592,2.593,2.5796,2.5795,2.5795,0,0,2.5455,2.5476,2.5525,2.5549,2.5584,2.5596,2.5608,2.5641,2.5652,2.571,2.5703,2.5741,2.581,2.5836,2.5857,2.594,2.5932,2.5953,2.5993,2.6033,2.6043,2.6051,2.6083,2.6094,2.5959,2.596,2.596,0,2.5483,2.5545,2.5551,2.5598,2.5623,2.5615,2.5666,2.5688,2.5734,2.5752,2.5735,2.5823,2.5846,2.5919,2.5939,2.5957,2.5972,2.5948,2.6041,2.6049,2.6057,2.6088,2.6099,2.5962,2.5962,2.5961,2.5961,0,2.5579,2.5623,2.5659,2.5705,2.5733,2.5782,2.5796,2.5825,2.5826,2.5839,2.5901,2.5927,2.5972,2.599,2.599,2.6064,2.6054,2.6039,2.6008,2.6071,2.61,2.6111,2.5965,2.5964,2.5964,2.5963,0,0,2.5663,2.5714,2.5727,2.5749,2.5788,2.5823,2.5872,2.5917,2.5942,2.5975,2.6017,2.6077,2.6064,2.6089,2.6093,2.6128,2.6195,2.6109,2.611,2.6125,2.6281,2.6293,2.6306,2.619,2.6192,2.6194,2.6278,0,2.5738,2.5824,2.5832,2.5911,2.5953,2.5947,2.599,2.602,2.6034,2.6073,2.6089,2.6132,2.6111,2.6126,2.6161,2.6179,2.6226,2.6173,2.6231,2.6233,2.6223,2.632,2.6333,2.6411,2.6289,2.6291,2.6293,0,2.5836,2.5873,2.5955,2.5992,2.601,2.6048,2.6091,2.6128,2.6162,2.617,2.62,2.62,2.6252,2.622,2.6293,2.6257,2.6281,2.6294,2.6298,2.6304,2.6267,2.6331,2.6436,2.6448,2.631,2.6308,2.6307,0,2.5891,2.5961,2.6021,2.6039,2.6082,2.611,2.613,2.6162,2.6189,2.6227,2.6246,2.6289,2.6313,2.6347,2.6359,2.6334,2.6433,2.6401,2.6443,2.6443,2.6464,2.6463,2.6576,2.6478,2.6478,2.6478,2.6477,0,2.5974,2.6025,2.6047,2.6083,2.6141,2.615,2.6208,2.6226,2.6256,2.6297,2.6294,2.6333,2.6346,2.6387,2.6397,2.6458,2.6468,2.6478,2.648,2.6479,2.6478,2.6495,2.649,2.6481,2.648,2.6479,2.6479,0,2.6046,2.6062,2.6126,2.6163,2.6173,2.6215,2.6246,2.6283,2.6297,2.6349,2.6362,2.6386,2.6435,2.645,2.6509,2.6516,2.6587,2.6584,2.6576,2.6576,2.6618,2.6615,2.6748,2.6767,2.6655,2.6656,2.6657,0,2.6098,2.6138,2.6179,2.6206,2.6227,2.6271,2.6299,2.6311,2.6341,2.6385,2.6416,2.6465,2.6504,2.6583,2.6606,2.6652,2.665,2.6694,2.6657,2.6656,2.6653,2.6651,2.6656,2.6701,2.6702,2.6703,2.6704,0,2.619,2.6197,2.6237,2.6282,2.6316,2.6352,2.6386,2.6409,2.6425,2.6459,2.651,2.6541,2.6602,2.6651,2.6698,2.6719,2.6715,2.6715,2.6728,2.6727,2.6722,2.6727,2.6596,2.6712,2.6711,2.6711,2.671,2.671,2.6255,2.6291,2.6326,2.6373,2.64,2.6433,2.6469,2.6489,2.6531,2.6582,2.6587,2.6642,2.6678,2.6741,2.6765,2.6809,2.6796,2.6814,2.6819,2.6823,2.6827,2.6714,2.6817,2.6817,2.6817,2.6816,2.6816,0,2.6348,2.6371,2.6414,2.6463,2.65,2.6493,2.6531,2.6563,2.6612,2.6645,2.6685,2.6744,2.6793,2.682,2.6869,2.6899,2.6899,2.6912,2.691,2.6916,2.6835,2.682,2.6911,2.6911,2.6911,2.6911,2.6911,2.6911,2.6401,2.6462,2.6474,2.6549,2.6572,2.6626,2.6649,2.668,2.6708,2.6774,2.6814,2.6832,2.6864,2.6916,2.6961,2.6967,2.6986,2.7001,2.7007,2.6931,2.6921,2.6912,2.6898,2.7004,2.7005,2.7085,2.7085,2.7086]},{"header":{"parameterUnit":"m.s-1","parameterCategory":1,"la1":30.2991,"la2":30.254,"lo1":-89.0895,"lo2":-89.0444,"dy":0.0017,"dx":0.0017,"nx":28,"ny":28,"refTime":"2024-06-25T03:00:00:Z","depth":0,"parameterNumber":3,"parameterNumberName":"V-component_of_WINDS"},"data":[0,0,0,0,0,0,0,0,0,0,0,0,0,0,0,0,0,0,0,0,0,0,0,0,0,0,0,0,0,0,0,0,0,0,0,0,0,0,0,0,0,0,0,0,0,0,0,0,0,0,0,0,0,0,0,0,0,0,-1.4306,-1.4306,0,-1.4341,-1.4342,-1.4342,-1.4343,-1.4343,-1.4342,-1.4342,-1.4376,-1.4377,-1.4379,0,0,0,0,0,0,0,0,0,0,0,0,0,-1.4239,-1.424,-1.4306,-1.4306,-1.4307,-1.4341,-1.4342,-1.4342,-1.4343,-1.4343,-1.4342,-1.4342,-1.4376,-1.4377,-1.4379,0,0,0,0,0,0,0,0,0,0,0,0,0,-1.427,-1.424,-1.4306,-1.4312,-1.4312,-1.4341,-1.4342,-1.4342,-1.4343,-1.4343,-1.4342,-1.4341,-1.4375,-1.4377,-1.4379,-1.4404,0,0,-1.4385,-1.4386,0,0,0,0,0,0,0,0,-1.4268,-1.4273,-1.431,-1.4311,-1.4312,-1.4337,-1.433,-1.4363,-1.4343,-1.4332,-1.4342,-1.4341,-1.4364,-1.4366,-1.4374,-1.4405,-1.4407,-1.4385,-1.4386,-1.4387,-1.4388,0,0,0,0,0,0,0,-1.4266,-1.4271,-1.432,-1.4311,-1.4312,-1.4312,-1.4316,-1.4337,-1.4351,-1.4332,-1.4333,-1.4337,-1.4364,-1.4372,-1.4375,-1.4407,-1.4385,-1.4387,-1.4388,-1.4389,-1.4462,-1.4462,0,0,0,0,0,0,-1.4263,-1.4269,-1.4319,-1.4321,-1.4288,-1.4314,-1.4318,-1.433,-1.435,-1.4353,-1.4337,-1.4337,-1.4369,-1.4373,-1.4376,-1.4408,-1.4387,-1.4389,-1.439,-1.4461,-1.4462,-1.4463,0,0,0,0,0,0,-1.4262,-1.4268,-1.4317,-1.4295,-1.4302,-1.4316,-1.4329,-1.4331,-1.4339,-1.4354,-1.4356,-1.4344,-1.4369,-1.4374,-1.4397,-1.4409,-1.439,-1.4392,-1.446,-1.4461,-1.4462,-1.447,0,0,0,0,0,0,-1.426,-1.4267,-1.4277,-1.4295,-1.4303,-1.4338,-1.4329,-1.4332,-1.4343,-1.4342,-1.4361,-1.4363,-1.4369,-1.4394,-1.4399,-1.4411,-1.4393,-1.4459,-1.446,-1.4462,-1.4468,-1.4471,-1.4473,0,0,0,0,0,-1.4257,-1.4277,-1.4277,-1.4283,-1.4315,-1.4339,-1.4343,-1.435,-1.4344,-1.4354,-1.4363,-1.4362,-1.4407,-1.4397,-1.4402,-1.4415,-1.4458,-1.446,-1.4462,-1.4467,-1.447,-1.4473,0,0,0,0,0,0,-1.4258,-1.4279,-1.428,-1.4306,-1.4321,-1.4339,-1.4351,-1.4352,-1.4368,-1.4367,-1.4375,-1.4379,-1.4403,-1.4411,-1.44,-1.444,-1.4432,-1.4435,-1.4434,-1.4437,-1.4439,-1.4437,-1.4395,0,0,0,0,0,-1.4261,-1.4279,-1.4296,-1.4318,-1.4325,-1.4337,-1.4347,-1.4352,-1.4367,-1.4373,-1.4384,-1.4398,-1.4416,-1.4427,-1.4443,-1.447,-1.4474,-1.4481,-1.4483,-1.4485,-1.4487,-1.4503,-1.4507,-1.4468,-1.4468,-1.4468,0,0,-1.4268,-1.4282,-1.4292,-1.4318,-1.433,-1.4348,-1.4342,-1.4361,-1.4374,-1.4375,-1.4399,-1.4408,-1.4424,-1.445,-1.4461,-1.4457,-1.4499,-1.4487,-1.4488,-1.449,-1.4505,-1.4509,-1.4512,-1.4469,-1.4469,-1.4469,0,0,-1.429,-1.4302,-1.4322,-1.4334,-1.4352,-1.436,-1.4365,-1.4383,-1.4389,-1.4413,-1.4415,-1.443,-1.446,-1.4472,-1.4482,-1.4509,-1.4509,-1.4514,-1.4526,-1.4541,-1.4544,-1.4547,-1.4558,-1.4561,-1.4517,-1.4517,-1.4517,0,-1.4296,-1.4323,-1.4331,-1.4351,-1.4362,-1.4365,-1.4385,-1.4396,-1.4419,-1.4427,-1.4422,-1.446,-1.4471,-1.45,-1.4507,-1.4514,-1.452,-1.4512,-1.4543,-1.4546,-1.4549,-1.4559,-1.4563,-1.4517,-1.4517,-1.4517,-1.4517,0,-1.433,-1.4349,-1.4363,-1.4386,-1.4399,-1.4418,-1.4429,-1.4441,-1.4445,-1.4453,-1.4478,-1.4492,-1.4512,-1.4519,-1.4521,-1.4548,-1.4545,-1.4542,-1.4533,-1.4553,-1.4563,-1.4567,-1.4518,-1.4518,-1.4518,-1.4518,0,0,-1.4353,-1.4381,-1.4386,-1.4397,-1.4417,-1.4432,-1.4452,-1.4472,-1.4483,-1.4499,-1.4516,-1.4541,-1.4539,-1.455,-1.4554,-1.4567,-1.459,-1.4563,-1.4563,-1.4568,-1.4621,-1.4623,-1.4628,-1.459,-1.459,-1.4591,-1.462,0,-1.4378,-1.4414,-1.4422,-1.4453,-1.4471,-1.4474,-1.4492,-1.4506,-1.4515,-1.4531,-1.4541,-1.4559,-1.4554,-1.4561,-1.4574,-1.4584,-1.46,-1.4582,-1.4606,-1.4607,-1.4602,-1.4633,-1.4636,-1.4662,-1.4623,-1.4624,-1.4624,0,-1.4411,-1.4429,-1.4462,-1.4481,-1.4489,-1.4505,-1.4525,-1.454,-1.4557,-1.4563,-1.4576,-1.4579,-1.46,-1.4591,-1.462,-1.4607,-1.4617,-1.4624,-1.4625,-1.4628,-1.4617,-1.4637,-1.467,-1.4675,-1.463,-1.463,-1.4629,0,-1.4426,-1.4457,-1.4482,-1.4491,-1.4514,-1.4525,-1.4535,-1.4551,-1.4563,-1.458,-1.4588,-1.4607,-1.4618,-1.4632,-1.4641,-1.4633,-1.467,-1.4661,-1.4675,-1.4675,-1.4683,-1.4682,-1.4719,-1.4688,-1.4688,-1.4688,-1.4688,0,-1.4453,-1.4473,-1.4489,-1.4504,-1.4527,-1.4536,-1.4558,-1.4568,-1.4583,-1.46,-1.4603,-1.4619,-1.4629,-1.4646,-1.4653,-1.4676,-1.4681,-1.4686,-1.4687,-1.4686,-1.4685,-1.4693,-1.4692,-1.4689,-1.4689,-1.4689,-1.4689,0,-1.4473,-1.4484,-1.4511,-1.4531,-1.4536,-1.4553,-1.457,-1.4584,-1.4593,-1.4615,-1.462,-1.4634,-1.4655,-1.4665,-1.469,-1.4694,-1.4721,-1.4721,-1.4716,-1.4717,-1.4731,-1.473,-1.4774,-1.4781,-1.4745,-1.4746,-1.4746,0,-1.4489,-1.4505,-1.4528,-1.454,-1.455,-1.4569,-1.4582,-1.4591,-1.4604,-1.4625,-1.4638,-1.4659,-1.4676,-1.4709,-1.4721,-1.474,-1.4741,-1.4756,-1.4744,-1.4743,-1.4743,-1.4742,-1.4744,-1.4758,-1.4758,-1.4758,-1.4758,0,-1.4518,-1.4524,-1.4542,-1.4563,-1.4578,-1.4594,-1.4611,-1.462,-1.4632,-1.4647,-1.4668,-1.4682,-1.4708,-1.4729,-1.475,-1.476,-1.4762,-1.4762,-1.4767,-1.4765,-1.4762,-1.4765,-1.4722,-1.4761,-1.4761,-1.4761,-1.476,-1.476,-1.4538,-1.4553,-1.4571,-1.4592,-1.4605,-1.462,-1.4636,-1.4647,-1.4665,-1.4688,-1.4692,-1.4715,-1.4733,-1.4761,-1.4772,-1.479,-1.4786,-1.4793,-1.4794,-1.4796,-1.4797,-1.4759,-1.4793,-1.4793,-1.4793,-1.4793,-1.4793,0,-1.4568,-1.458,-1.4599,-1.4622,-1.4639,-1.4639,-1.4657,-1.4671,-1.4692,-1.4708,-1.4725,-1.475,-1.4771,-1.4785,-1.4806,-1.4818,-1.4819,-1.4823,-1.4822,-1.4825,-1.4799,-1.4793,-1.4822,-1.4822,-1.4822,-1.4822,-1.4822,-1.4822,-1.4585,-1.4611,-1.4618,-1.465,-1.4662,-1.4685,-1.4696,-1.471,-1.4723,-1.4752,-1.4769,-1.4778,-1.4794,-1.4816,-1.4835,-1.4839,-1.4847,-1.4851,-1.4854,-1.483,-1.4827,-1.4824,-1.4819,-1.4852,-1.4852,-1.488,-1.488,-1.488]}]]